BEIDOU-2 G1

Last updated on Sat Dec 13 2025 00:02:47 GMT+0000 (Coordinated Universal Time)

1 36287U 10001A 25346.16144507 -.00000272 00000+0 00000+0 0 9996 2 36287 3.8568 60.8086 0004295 250.9342 327.9369 1.00268854 58298
UTC large
Height (km)
Speed (km/s)
/
Latitude / Longitude
Inclination (degrees)
Orbital Period (minutes)
Azimuth
Elevation
Range (km)
Doppler Factor

Next 0 passes for location: London (51.5072 / 0.1276)

Sorry there are no passes over London.